When you browse on this site, cookies collect data to enhance your experience and personalize the content and advertising you see.
Visit our Privacy Policy to learn more. By continuing to use the site, you agree to this use of cookies and data.
  • In Hungary
  • List of Countries
  • For 7 days
  • Water Temperature
  • Satellite Maps
  • Weather Map
  • News
  • Weather Widgets
  • user-avatar
    Login

    Hourly Weather Oklahoma City

    Today, 16 February, Saturday

    Time Temperature Precipitation Wind Pressure Humidity
    00:00 -7°C° 0 mm 5 mps 728 mmHg 70%
    01:00 -7°C° 0 mm 5 mps 728 mmHg 70%
    02:00 -7°C° 0 mm 4 mps 728 mmHg 71%
    03:00 -7°C° 0 mm 4 mps 728 mmHg 71%
    04:00 -7°C° 0 mm 4 mps 728 mmHg 71%
    05:00 -7°C° 0 mm 4 mps 728 mmHg 71%
    06:00 -6°C° 0 mm 3 mps 728 mmHg 70%
    07:00 -5°C° 0 mm 3 mps 727 mmHg 69%
    08:00 -5°C° 0 mm 3 mps 727 mmHg 69%
    09:00 -2°C° 0 mm 3 mps 727 mmHg 66%
    10:00 -1°C° 0 mm 3 mps 726 mmHg 64%
    11:00 +1°C° 0 mm 3 mps 725 mmHg 62%
    12:00 +1°C° 0 mm 4 mps 724 mmHg 60%
    13:00 +4°C° 0 mm 4 mps 723 mmHg 58%
    14:00 +6°C° 0 mm 5 mps 722 mmHg 57%
    15:00 +5°C° 0 mm 4 mps 722 mmHg 61%
    16:00 +5°C° 0 mm 4 mps 721 mmHg 64%
    17:00 +4°C° 0 mm 3 mps 720 mmHg 68%
    18:00 +3°C° 0 mm 3 mps 720 mmHg 75%
    19:00 +2°C° 0 mm 3 mps 720 mmHg 82%
    20:00 +2°C° 0 mm 3 mps 719 mmHg 89%
    21:00 +1°C° 0 mm 4 mps 719 mmHg 91%
    22:00 +1°C° 0 mm 4 mps 719 mmHg 93%
    23:00 +1°C° 0 mm 5 mps 718 mmHg 95%

    Tomorrow, 17 February, Sunday

    Time Temperature Precipitation Wind Pressure Humidity
    00:00 +1°C° 0 mm 4 mps 718 mmHg 95%
    01:00 +1°C° 0 mm 4 mps 719 mmHg 96%
    02:00 +2°C° 0 mm 3 mps 719 mmHg 96%
    03:00 +1°C° 0 mm 5 mps 720 mmHg 94%
    04:00 -1°C° 0 mm 6 mps 721 mmHg 92%
    05:00 -1°C° 0 mm 7 mps 722 mmHg 90%
    06:00 -1°C° 0 mm 7 mps 723 mmHg 86%
    07:00 -1°C° 0 mm 7 mps 724 mmHg 81%
    08:00 -1°C° 0 mm 7 mps 726 mmHg 77%
    09:00 +2°C° 0 mm 7 mps 726 mmHg 69%
    10:00 +3°C° 0 mm 6 mps 727 mmHg 61%
    11:00 +4°C° 0 mm 6 mps 727 mmHg 53%
    12:00 +5°C° 0 mm 6 mps 727 mmHg 49%
    13:00 +7°C° 0 mm 6 mps 727 mmHg 45%
    14:00 +8°C° 0 mm 5 mps 727 mmHg 40%
    15:00 +7°C° 0 mm 5 mps 728 mmHg 42%
    16:00 +6°C° 0 mm 4 mps 728 mmHg 44%
    17:00 +5°C° 0 mm 4 mps 729 mmHg 46%
    18:00 +4°C° 0 mm 4 mps 730 mmHg 49%
    19:00 +2°C° 0 mm 5 mps 731 mmHg 52%
    20:00 +1°C° 0 mm 5 mps 732 mmHg 55%
    21:00 0°C° 0 mm 5 mps 732 mmHg 59%
    22:00 -2°C° 0 mm 6 mps 732 mmHg 63%
    23:00 -3°C° 0 mm 6 mps 732 mmHg 67%

    Day after tomorrow, 18 February, Monday

    Time Temperature Precipitation Wind Pressure Humidity
    00:00 -4°C° 0 mm 5 mps 733 mmHg 69%
    01:00 -4°C° 0 mm 5 mps 733 mmHg 70%
    02:00 -5°C° 0 mm 5 mps 733 mmHg 72%
    03:00 -5°C° 0 mm 5 mps 734 mmHg 72%
    04:00 -5°C° 0 mm 5 mps 734 mmHg 72%
    05:00 -6°C° 0 mm 5 mps 735 mmHg 73%
    06:00 -5°C° 0 mm 5 mps 735 mmHg 69%
    07:00 -5°C° 0 mm 6 mps 736 mmHg 65%
    08:00 -5°C° 0 mm 6 mps 736 mmHg 61%
    09:00 -4°C° 0 mm 6 mps 737 mmHg 54%
    10:00 -2°C° 0 mm 6 mps 737 mmHg 47%
    11:00 -1°C° 0 mm 6 mps 737 mmHg 40%
    12:00 -1°C° 0 mm 6 mps 737 mmHg 39%
    13:00 +1°C° 0 mm 6 mps 736 mmHg 38%
    14:00 +1°C° 0 mm 6 mps 735 mmHg 37%
    15:00 +1°C° 0 mm 6 mps 735 mmHg 39%
    16:00 0°C° 0 mm 5 mps 735 mmHg 42%
    17:00 -1°C° 0 mm 5 mps 735 mmHg 45%
    18:00 -2°C° 0 mm 5 mps 736 mmHg 49%
    19:00 -3°C° 0 mm 6 mps 736 mmHg 53%
    20:00 -4°C° 0 mm 6 mps 737 mmHg 56%
    21:00 -4°C° 0 mm 6 mps 736 mmHg 60%
    22:00 -5°C° 0 mm 6 mps 736 mmHg 63%
    23:00 -5°C° 0 mm 6 mps 736 mmHg 66%

    19 February, Tuesday

    Time Temperature Precipitation Wind Pressure Humidity
    00:00 -5°C° 0 mm 6 mps 736 mmHg 68%
    01:00 -5°C° 0 mm 6 mps 735 mmHg 71%
    02:00 -5°C° 0 mm 6 mps 735 mmHg 73%
    03:00 -5°C° 0 mm 6 mps 735 mmHg 75%
    04:00 -5°C° 0 mm 6 mps 734 mmHg 78%
    05:00 -6°C° 0 mm 6 mps 734 mmHg 80%
    06:00 -5°C° 0.5 mm 6 mps 734 mmHg 83%
    07:00 -5°C° 0.5 mm 6 mps 734 mmHg 86%
    08:00 -5°C° 0.5 mm 6 mps 734 mmHg 88%
    09:00 -5°C° 1.1 mm 6 mps 733 mmHg 90%
    10:00 -5°C° 1.1 mm 6 mps 733 mmHg 91%
    11:00 -5°C° 1.1 mm 6 mps 732 mmHg 92%
    12:00 -5°C° 0.6 mm 6 mps 732 mmHg 93%
    13:00 -4°C° 0.6 mm 6 mps 731 mmHg 93%
    14:00 -4°C° 0.6 mm 6 mps 730 mmHg 93%
    15:00 -4°C° 0.7 mm 6 mps 730 mmHg 94%
    16:00 -4°C° 0.7 mm 6 mps 729 mmHg 94%
    17:00 -3°C° 0.7 mm 6 mps 729 mmHg 94%
    18:00 -2°C° 0.4 mm 5 mps 729 mmHg 95%
    19:00 -2°C° 0.4 mm 4 mps 729 mmHg 95%
    20:00 -1°C° 0.4 mm 3 mps 729 mmHg 96%
    21:00 -1°C° 0 mm 3 mps 729 mmHg 96%
    22:00 -1°C° 0 mm 3 mps 728 mmHg 97%
    23:00 -2°C° 0 mm 3 mps 728 mmHg 97%

    20 February, Wednesday

    Time Temperature Precipitation Wind Pressure Humidity
    00:00 -2°C° 0 mm 3 mps 728 mmHg 97%
    01:00 -2°C° 0 mm 3 mps 728 mmHg 97%
    02:00 -2°C° 0 mm 3 mps 728 mmHg 97%
    03:00 -2°C° 0 mm 3 mps 728 mmHg 96%
    04:00 -2°C° 0 mm 3 mps 728 mmHg 96%
    05:00 -4°C° 0 mm 3 mps 728 mmHg 95%
    06:00 -4°C° 0 mm 3 mps 728 mmHg 95%
    07:00 -4°C° 0 mm 4 mps 729 mmHg 94%
    08:00 -5°C° 0 mm 5 mps 729 mmHg 94%
    09:00 -3°C° 0 mm 4 mps 729 mmHg 95%
    10:00 -2°C° 0 mm 4 mps 729 mmHg 96%
    11:00 -1°C° 0 mm 3 mps 729 mmHg 98%
    12:00 -1°C° 0 mm 3 mps 728 mmHg 96%
    13:00 0°C° 0 mm 3 mps 728 mmHg 94%
    14:00 +1°C° 0 mm 2 mps 727 mmHg 93%
    15:00 +1°C° 0 mm 2 mps 728 mmHg 92%
    16:00 +1°C° 0 mm 2 mps 728 mmHg 91%
    17:00 -1°C° 0 mm 2 mps 728 mmHg 91%
    18:00 -1°C° 0 mm 2 mps 729 mmHg 91%
    19:00 -1°C° 0 mm 2 mps 729 mmHg 90%
    20:00 -1°C° 0 mm 2 mps 730 mmHg 90%
    21:00 -2°C° 0 mm 2 mps 730 mmHg 91%
    22:00 -3°C° 0 mm 2 mps 729 mmHg 92%
    23:00 -3°C° 0 mm 2 mps 729 mmHg 93%

    21 February, Thursday

    Time Temperature Precipitation Wind Pressure Humidity
    00:00 -5°C° 0 mm 3 mps 729 mmHg 94%
    01:00 -5°C° 0 mm 3 mps 729 mmHg 94%
    02:00 -5°C° 0 mm 3 mps 729 mmHg 94%
    03:00 -5°C° 0 mm 3 mps 729 mmHg 94%
    04:00 -5°C° 0 mm 3 mps 730 mmHg 94%
    05:00 -5°C° 0 mm 3 mps 730 mmHg 94%
    06:00 -5°C° 0 mm 4 mps 730 mmHg 92%
    07:00 -4°C° 0 mm 4 mps 730 mmHg 91%
    08:00 -4°C° 0 mm 5 mps 731 mmHg 89%
    09:00 -4°C° 0 mm 5 mps 730 mmHg 88%
    10:00 -2°C° 0 mm 5 mps 730 mmHg 87%
    11:00 -2°C° 0 mm 4 mps 730 mmHg 86%
    12:00 -2°C° 0.4 mm 4 mps 729 mmHg 88%
    13:00 -2°C° 0.4 mm 4 mps 729 mmHg 90%
    14:00 -2°C° 0.4 mm 4 mps 728 mmHg 92%
    15:00 -2°C° 0.3 mm 4 mps 728 mmHg 93%
    16:00 -2°C° 0.3 mm 4 mps 728 mmHg 93%
    17:00 -2°C° 0.3 mm 4 mps 729 mmHg 94%
    18:00 -2°C° 0 mm 4 mps 729 mmHg 95%
    19:00 -1°C° 0 mm 3 mps 729 mmHg 95%
    20:00 -1°C° 0 mm 2 mps 730 mmHg 96%
    21:00 -1°C° 0 mm 3 mps 730 mmHg 96%
    22:00 -1°C° 0 mm 3 mps 730 mmHg 97%
    23:00 -1°C° 0 mm 3 mps 730 mmHg 97%
    Show more